Home > Weather > Lage > Past weeks

Flag for Germany Past Weather in Lage, North Rhine-Westphalia, Germany — Yesterday and Last 2 Weeks

Now
66 °F

Passing clouds.


Feels Like: 66 °F
Forecast: 55 / 76 °F
Wind: 6 mph from East

Location: Bueckeburg

Current Time: May 30, 2016 at 10:22:47 PM

Latest Report: May 30, 2016 at 9:20 PM


Visibility: N/A

Pressure: 29.68 "Hg

Humidity: 83%

Dew Point: 61 °F

Location of LageLocation

Past Weather in Lage — Graph

°F

Lage Temperature Yesterday

Maximum temperature yesterday: 66 °F (at 6:20 PM)
Minimum temperature yesterday: 59 °F (at 5:20 AM)
Average temperature yesterday: 61 °F

High & Low Weather Summary for the Past Weeks

 TemperatureHumidityPressure
High79 °F (May 22, 2:20 PM)100% (May 22, 8:20 PM)30.07 "Hg (May 22, 8:20 PM)
Low41 °F (May 16, 5:20 AM)44% (May 22, 12:20 PM)29.59 "Hg (May 30, 3:20 PM)
Average59 °F76%29.90 "Hg
* Reported May 15 8:20 PM — May 30 8:20 PM, Lage, Weather by CustomWeather, © 2016

Note: Actual official high and low records may vary slightly from our data, if they occured in-between our weather recording intervals... More about our weather records

Advertising

Lage Weather History for the Previous 24 Hours

Scroll right to see more
 ConditionsComfort  
Time TempWeatherWind HumidityBarometerVisibility
8:20 PM
Mon, May 30
68 °FScattered clouds.6 mph94%29.65 "HgN/A
7:20 PM68 °FBroken clouds.6 mph88%29.62 "HgN/A
6:20 PM64 °FBroken clouds.5 mph94%29.62 "Hg6 mi
5:20 PM70 °FThunderstorms. Broken clouds.13 mph83%29.59 "Hg2 mi
4:20 PM77 °FThunderstorms. Scattered clouds.13 mph61%29.59 "Hg5 mi
3:20 PM75 °FBroken clouds.10 mph69%29.59 "Hg6 mi
2:20 PM73 °FPartly sunny.12 mph74%29.62 "Hg5 mi
1:20 PM72 °FPartly sunny.12 mph78%29.62 "HgN/A
12:20 PM72 °FPartly sunny.10 mph78%29.62 "HgN/A
11:20 AM70 °FPartly sunny.9 mph78%29.62 "HgN/A
10:20 AM68 °FPartly sunny.8 mph88%29.62 "Hg6 mi
9:20 AM66 °FPartly sunny.9 mph88%29.62 "Hg5 mi
8:49 AM64 °FBroken clouds.8 mph94%29.62 "Hg4 mi
8:20 AM64 °FFog.7 mph88%29.62 "Hg3 mi
8:03 AM63 °FFog.9 mph94%29.62 "Hg3 mi
7:20 AM63 °FFog.6 mph100%29.62 "Hg2 mi
6:45 AM61 °FFog.3 mph100%29.65 "Hg1 mi
6:20 AM61 °FFog.3 mph100%29.65 "Hg1 mi
6:01 AM61 °FFog.3 mph100%29.65 "Hg0 mi
5:20 AM61 °FCool.6 mph100%29.65 "Hg0 mi
4:20 AM61 °FCool.5 mph100%29.65 "Hg0 mi
3:20 AM61 °FCool.6 mph100%29.68 "Hg0 mi
2:20 AM61 °FCool.3 mph100%29.68 "Hg1 mi
1:20 AM63 °FMild.5 mph94%29.68 "Hg1 mi
12:20 AM63 °FMild.3 mph94%29.71 "Hg1 mi
11:20 PM
Sun, May 29
63 °FMild.2 mph94%29.74 "Hg2 mi
10:20 PM63 °FMild.5 mph94%29.74 "Hg2 mi
Weather by CustomWeather, © 2016

See weather overviewHow to use our weather pages